This is the latest recevied weather packets stored in our database for station/object K2ATL. If no packets are shown the sender has not sent any weather packets the latest 10 day(s).
| Time | Temp. | Humidity | Pressure | Rain* | Wind** | Luminosity | Snow |
|---|---|---|---|---|---|---|---|
| 1777592088 | 15° C | 59% | 1096.6 hPa | 0 mm | - | 45 W/m² | - |
| 1777591786 | 15° C | 59% | 1096.6 hPa | 0 mm | - | 45 W/m² | - |
| 1777591482 | 15° C | 59% | 1096.6 hPa | 0 mm | - | 68 W/m² | - |
| 1777591178 | 14.44° C | 59% | 1096.6 hPa | 0 mm | - | 64 W/m² | - |
| 1777590872 | 14.44° C | 59% | 1096.5 hPa | 0 mm | - | 54 W/m² | - |
| 1777590570 | 15° C | 62% | 1096.9 hPa | 0 mm | - | 62 W/m² | - |
| 1777590266 | 15° C | 62% | 1096.6 hPa | 0 mm | - | 85 W/m² | - |
| 1777589963 | 15° C | 61% | 1096.5 hPa | 0 mm | - | 95 W/m² | - |
| 1777589660 | 15° C | 59% | 1096.9 hPa | 0 mm | - | 112 W/m² | - |
| 1777589357 | 15° C | 60% | 1096.8 hPa | 0 mm | - | 92 W/m² | - |
| 1777589054 | 15° C | 59% | 1097 hPa | 0 mm | - | 102 W/m² | - |
| 1777588750 | 15° C | 64% | 1096.9 hPa | 0 mm | - | 142 W/m² | - |
| 1777588446 | 15° C | 61% | 1097.1 hPa | 0 mm | - | 120 W/m² | - |
| 1777588141 | 15° C | 59% | 1097 hPa | 0 mm | - | 139 W/m² | - |
| 1777587838 | 15° C | 61% | 1096.9 hPa | 0 mm | - | 149 W/m² | - |
| 1777587537 | 15° C | 58% | 1097 hPa | 0 mm | - | 147 W/m² | - |
| 1777587233 | 15° C | 61% | 1096.9 hPa | 0 mm | - | 169 W/m² | - |
| 1777586928 | 15° C | 61% | 1096.9 hPa | 0 mm | - | 145 W/m² | - |
| 1777586625 | 15° C | 60% | 1096.8 hPa | 0 mm | - | 181 W/m² | - |
| 1777586320 | 15.56° C | 59% | 1096.9 hPa | 0 mm | - | 194 W/m² | - |
| 1777586019 | 15.56° C | 59% | 1096.9 hPa | 0 mm | - | 191 W/m² | - |
| 1777585719 | 15° C | 59% | 1096.8 hPa | 0 mm | - | 181 W/m² | - |
| 1777585419 | 15.56° C | 58% | 1096.8 hPa | 0 mm | - | 206 W/m² | - |
| 1777585114 | 15.56° C | 59% | 1096.9 hPa | 0 mm | - | 213 W/m² | - |
| 1777584810 | 15.56° C | 58% | 1096.9 hPa | 0 mm | - | 226 W/m² | - |
* Rain latest hour (hover to see other rain measurements)
** Current wind speed in m/s (hover to see current wind gust speed)